DW5588 Weather Reports


Display with metric or nautical units.
time (UTC)temp
F
wind
direction
speed
MPH
gust
MPH
rain 1hr
in
rain 24hr
in
rain mn
in
humidity
%
barometer
mb
20191014105003 36 304 1.0 4.0 0.00 0.12 0.00 90 1012.3
20191014104503 36 301 1.0 3.0 0.00 0.12 0.00 90 1012.3
20191014104004 36 299 1.0 4.0 0.00 0.12 0.00 90 1012.2
20191014103503 36 299 1.0 4.0 0.00 0.12 0.00 90 1012.2
20191014103004 36 292 0.0 3.0 0.00 0.12 0.00 90 1012.2
20191014102504 36 289 0.0 3.0 0.00 0.12 0.00 90 1011.9
20191014102004 36 305 0.0 3.0 0.00 0.12 0.00 90 1011.9
20191014101504 35 310 0.0 3.0 0.00 0.12 0.00 90 1011.9
20191014101003 35 240 0.0 2.0 0.00 0.12 0.00 90 1011.8
20191014100503 35 202 1.0 2.0 0.00 0.12 0.00 90 1011.8
20191014100004 36 201 0.0 2.0 0.00 0.12 0.00 90 1011.8
20191014095503 36 270 0.0 3.0 0.00 0.12 0.00 90 1011.7
20191014095004 36 281 1.0 3.0 0.00 0.12 0.00 90 1011.7
20191014094504 36 276 0.0 2.0 0.00 0.12 0.00 90 1011.7
20191014094003 36 257 0.0 2.0 0.00 0.12 0.00 90 1011.5
20191014093504 35 220 0.0 1.0 0.00 0.12 0.00 90 1011.5
20191014093004 35 238 0.0 1.0 0.00 0.12 0.00 90 1011.5
20191014092504 35 274 0.0 1.0 0.00 0.12 0.00 90 1011.3
20191014092004 35 256 0.0 2.0 0.00 0.12 0.00 90 1011.3
20191014091512 35 225 0.0 2.0 0.00 0.12 0.00 90 1011.3
20191014091004 36 211 0.0 2.0 0.00 0.12 0.00 90 1011.2
20191014090506 36 213 0.0 2.0 0.00 0.12 0.00 90 1011.2
20191014090006 36 216 0.0 2.0 0.00 0.12 0.00 89 1011.2
20191014085504 36 222 0.0 2.0 0.00 0.12 0.00 89 1010.9
20191014085003 36 273 0.0 2.0 0.00 0.12 0.00 89 1010.9
20191014084504 36 293 1.0 4.0 0.00 0.12 0.00 89 1010.9
20191014084003 36 302 1.0 4.0 0.00 0.12 0.00 89 1010.7
20191014083504 36 306 1.0 5.0 0.00 0.12 0.00 89 1010.7
20191014083003 36 287 1.0 5.0 0.00 0.12 0.00 89 1010.7
20191014082503 36 268 1.0 3.0 0.00 0.12 0.00 89 1010.5
20191014082004 36 270 0.0 3.0 0.00 0.12 0.00 89 1010.5
20191014081503 36 264 0.0 2.0 0.00 0.12 0.00 89 1010.5
20191014081003 36 258 0.0 2.0 0.00 0.12 0.00 89 1010.3
20191014080504 36 287 1.0 4.0 0.00 0.12 0.00 89 1010.3
20191014080003 36 294 1.0 4.0 0.00 0.12 0.00 89 1010.3
20191014075504 36 250 1.0 3.0 0.00 0.12 0.00 89 1010.2
20191014075004 36 234 1.0 4.0 0.00 0.12 0.00 89 1010.2
20191014074505 36 248 1.0 4.0 0.00 0.12 0.00 89 1010.2
20191014074004 36 246 1.0 3.0 0.00 0.12 0.00 89 1010.3
20191014073504 36 268 1.0 3.0 0.00 0.12 0.00 89 1010.3
20191014073004 36 271 1.0 3.0 0.00 0.12 0.00 89 1010.3
20191014072504 36 270 1.0 4.0 0.00 0.12 0.00 89 1010.2
20191014072004 36 275 0.0 4.0 0.00 0.12 0.00 89 1010.2
20191014071504 36 270 0.0 3.0 0.00 0.12 0.00 89 1010.2
20191014071003 36 270 0.0 3.0 0.00 0.12 0.00 89 1010.2
20191014070503 36 284 0.0 2.0 0.00 0.12 0.00 89 1010.2
20191014070004 36 290 0.0 3.0 0.00 0.12 0.00 89 1010.2
20191014065503 36 272 0.0 3.0 0.00 0.12 0.00 89 1010.2
20191014065004 36 277 0.0 3.0 0.00 0.12 0.00 89 1010.2
20191014064504 36 283 0.0 4.0 0.00 0.12 0.00 89 1010.2
20191014064003 36 266 1.0 4.0 0.00 0.12 0.00 89 1010.2
20191014063504 36 273 1.0 3.0 0.00 0.12 0.00 89 1010.2
20191014063004 36 276 1.0 3.0 0.00 0.12 0.00 89 1010.2
20191014062504 36 263 1.0 3.0 0.00 0.12 0.00 89 1010.1
20191014062004 36 237 1.0 4.0 0.00 0.12 0.00 88 1010.1
20191014061503 36 238 0.0 4.0 0.00 0.12 0.00 88 1010.1
20191014061004 36 282 0.0 2.0 0.00 0.12 0.00 88 1010.1
20191014060504 36 246 0.0 2.0 0.00 0.12 0.00 88 1010.1
20191014060003 36 243 0.0 1.0 0.00 0.12 0.00 88 1010.1
20191014055504 36 222 0.0 1.0 0.00 0.12 0.00 88 1010.1
20191014055003 36 214 0.0 1.0 0.00 0.12 0.00 88 1010.1
20191014054504 36 248 0.0 1.0 0.00 0.12 0.00 88 1010.1
20191014054004 36 243 0.0 1.0 0.00 0.12 0.00 88 1010.0
20191014053504 36 223 0.0 1.0 0.00 0.12 0.00 87 1010.1
20191014053003 37 293 0.0 2.0 0.00 0.12 0.00 87 1010.1
20191014052504 37 298 0.0 2.0 0.00 0.12 0.00 87 1009.8
20191014052003 37 307 0.0 2.0 0.00 0.12 0.00 87 1009.8
20191014051503 37 283 0.0 2.0 0.00 0.12 0.00 87 1009.8
20191014051005 37 220 0.0 2.0 0.00 0.12 0.00 87 1009.8
20191014050504 37 229 0.0 2.0 0.00 0.12 0.00 86 1009.8
20191014050003 37 263 0.0 2.0 0.00 0.12 0.00 86 1009.8
20191014045504 37 285 0.0 2.0 0.00 0.12 0.00 86 1009.7
20191014045004 38 290 0.0 3.0 0.00 0.12 0.00 86 1009.7
20191014044504 38 296 0.0 3.0 0.00 0.12 0.00 86 1009.7
20191014044003 38 230 1.0 3.0 0.00 0.12 0.00 85 1009.7
20191014043503 38 191 1.0 3.0 0.00 0.12 0.00 86 1009.7
20191014043004 38 189 0.0 3.0 0.00 0.12 0.00 85 1009.7
20191014042503 38 207 0.0 3.0 0.00 0.12 0.00 85 1009.8
20191014042003 38 256 1.0 4.0 0.00 0.12 0.00 86 1009.8
20191014041504 38 207 2.0 5.0 0.00 0.12 0.00 86 1009.8
20191014041003 38 191 1.0 5.0 0.00 0.12 0.00 86 1010.0
20191014040503 38 214 1.0 3.0 0.00 0.12 0.00 86 1010.0
20191014040005 38 200 1.0 5.0 0.00 0.12 0.00 87 1010.0
20191014035503 38 197 1.0 5.0 0.00 0.12 0.12 87 1010.0
20191014035003 38 215 1.0 4.0 0.00 0.12 0.12 87 1010.0
20191014034504 38 292 1.0 3.0 0.00 0.12 0.12 87 1010.0
20191014034004 38 302 1.0 3.0 0.00 0.12 0.12 87 1009.9
20191014033503 38 252 0.0 3.0 0.00 0.12 0.12 87 1009.9
20191014033004 38 207 1.0 4.0 0.00 0.12 0.12 88 1009.9
20191014032503 38 193 1.0 4.0 0.00 0.12 0.12 88 1009.9
20191014032006 38 193 1.0 4.0 0.00 0.12 0.12 88 1009.9
20191014031503 38 212 0.0 4.0 0.00 0.12 0.12 88 1009.9
20191014031003 38 205 1.0 3.0 0.00 0.12 0.12 88 1009.9
20191014030504 38 196 0.0 3.0 0.00 0.12 0.12 88 1009.9
20191014030004 38 212 0.0 3.0 0.00 0.12 0.12 88 1009.9
20191014025503 38 209 0.0 1.0 0.00 0.12 0.12 88 1009.9
20191014025004 38 299 0.0 3.0 0.00 0.12 0.12 87 1009.9
20191014024503 38 272 0.0 3.0 0.00 0.12 0.12 87 1009.9
20191014024004 39 230 0.0 2.0 0.00 0.12 0.12 87 1009.8
20191014023503 39 259 0.0 3.0 0.00 0.12 0.12 87 1009.8
20191014023003 39 298 0.0 3.0 0.00 0.12 0.12 87 1009.8
20191014022504 39 304 1.0 3.0 0.00 0.12 0.12 87 1009.8
20191014022003 39 285 1.0 3.0 0.00 0.12 0.12 87 1009.8
20191014021504 39 205 1.0 3.0 0.00 0.12 0.12 87 1009.8
20191014021003 40 200 1.0 4.0 0.00 0.12 0.12 87 1009.7
20191014020503 40 199 1.0 4.0 0.00 0.12 0.12 87 1009.7
20191014020004 40 190 1.0 4.0 0.00 0.12 0.12 88 1009.7
20191014015503 40 186 1.0 4.0 0.00 0.12 0.12 88 1009.6
20191014015003 40 183 2.0 4.0 0.00 0.12 0.12 88 1009.6
20191014014504 40 184 2.0 4.0 0.00 0.12 0.12 88 1009.6
20191014014003 40 188 1.0 4.0 0.00 0.12 0.12 88 1009.5
20191014013503 40 209 1.0 3.0 0.00 0.12 0.12 89 1009.5
20191014013004 40 284 1.0 5.0 0.00 0.12 0.12 89 1009.5
20191014012503 40 301 2.0 6.0 0.00 0.12 0.12 89 1009.4
20191014012004 39 301 2.0 6.0 0.00 0.12 0.12 90 1009.4
20191014011505 39 296 1.0 5.0 0.00 0.12 0.12 90 1009.4
20191014011004 39 301 1.0 5.0 0.00 0.12 0.12 91 1009.3
20191014010504 39 241 1.0 2.0 0.00 0.12 0.12 91 1009.3
20191014010004 39 211 1.0 4.0 0.00 0.12 0.12 91 1009.3
20191014005503 39 207 1.0 4.0 0.00 0.12 0.12 91 1009.2
20191014005004 39 193 1.0 5.0 0.00 0.12 0.12 91 1009.2
20191014004503 39 190 1.0 5.0 0.00 0.12 0.12 91 1009.2
20191014004003 39 191 1.0 3.0 0.00 0.12 0.12 90 1009.1
20191014003504 39 198 2.0 4.0 0.00 0.12 0.12 90 1009.1
20191014003003 39 192 2.0 4.0 0.00 0.12 0.12 90 1009.1
20191014002504 39 182 2.0 5.0 0.00 0.12 0.12 90 1009.1
20191014002004 39 182 2.0 5.0 0.00 0.12 0.12 90 1009.1
20191014001503 40 187 2.0 4.0 0.00 0.12 0.12 90 1009.1
20191014001004 40 195 1.0 4.0 0.00 0.12 0.12 90 1009.1
20191014000504 40 190 2.0 7.0 0.00 0.12 0.12 90 1009.1
20191014000003 40 186 3.0 7.0 0.00 0.12 0.12 90 1009.1
20191013235504 40 185 3.0 7.0 0.00 0.12 0.12 90 1008.8
20191013235003 40 193 3.0 6.0 0.00 0.12 0.12 90 1008.8
20191013234505 40 194 3.0 6.0 0.00 0.12 0.12 90 1008.8
20191013234004 40 186 2.0 5.0 0.00 0.12 0.12 90 1008.9
20191013233503 40 182 2.0 5.0 0.00 0.12 0.12 89 1008.9
20191013233004 40 184 2.0 6.0 0.00 0.12 0.12 89 1008.9
20191013232503 40 181 3.0 6.0 0.00 0.12 0.12 89 1008.6
20191013232004 40 181 2.0 5.0 0.00 0.12 0.12 89 1008.6
20191013231504 40 188 2.0 5.0 0.00 0.12 0.12 89 1008.6
20191013231003 40 189 1.0 5.0 0.00 0.12 0.12 89 1008.6
20191013230504 40 187 2.0 6.0 0.00 0.12 0.12 89 1008.6
20191013230003 40 191 3.0 6.0 0.00 0.12 0.12 89 1008.6
20191013225504 40 189 2.0 6.0 0.00 0.12 0.12 89 1008.3
20191013225004 40 183 2.0 6.0 0.00 0.12 0.12 89 1008.3
20191013224503 40 186 2.0 5.0 0.00 0.12 0.12 89 1008.3
20191013224004 40 194 2.0 4.0 0.00 0.12 0.12 89 1008.5
20191013223504 40 202 1.0 4.0 0.00 0.12 0.12 89 1008.5
20191013223004 40 194 2.0 5.0 0.00 0.12 0.12 88 1008.5
20191013222504 40 198 2.0 5.0 0.00 0.12 0.12 88 1008.6
20191013222004 40 214 2.0 7.0 0.00 0.12 0.12 88 1008.6
20191013221504 40 212 2.0 7.0 0.00 0.12 0.12 88 1008.6
20191013221004 40 207 2.0 7.0 0.00 0.12 0.12 88 1008.3
20191013220503 40 213 2.0 6.0 0.01 0.12 0.12 88 1008.3
20191013220006 40 225 2.0 7.0 0.01 0.12 0.12 88 1008.3
20191013215505 40 225 2.0 7.0 0.01 0.12 0.12 88 1008.1
20191013215003 40 241 3.0 8.0 0.01 0.12 0.12 89 1008.1
20191013214504 40 244 2.0 8.0 0.01 0.12 0.12 89 1008.1
20191013214004 40 209 3.0 6.0 0.01 0.12 0.12 89 1008.1
20191013213504 40 208 3.0 7.0 0.01 0.12 0.12 89 1008.1
20191013213004 40 228 2.0 7.0 0.01 0.12 0.12 89 1008.1
20191013212503 40 223 3.0 7.0 0.01 0.12 0.12 89 1007.9
20191013212004 40 199 3.0 7.0 0.01 0.12 0.12 89 1007.9
20191013211504 40 228 3.0 8.0 0.01 0.12 0.12 89 1007.9
20191013211004 40 285 4.0 13.0 0.01 0.12 0.12 89 1007.7
20191013210504 40 298 4.0 13.0 0.01 0.11 0.11 89 1007.7
20191013210003 40 293 3.0 9.0 0.01 0.11 0.11 90 1007.7
20191013205504 40 278 2.0 8.0 0.01 0.11 0.11 90 1007.6
20191013205004 40 291 3.0 8.0 0.01 0.11 0.11 90 1007.6
20191013204504 40 290 3.0 9.0 0.01 0.11 0.11 90 1007.6
20191013204003 40 294 3.0 9.0 0.01 0.11 0.11 90 1007.5
20191013203503 40 294 3.0 9.0 0.01 0.11 0.11 89 1007.5
20191013203004 40 272 3.0 8.0 0.01 0.11 0.11 89 1007.5
20191013202503 40 240 2.0 8.0 0.01 0.11 0.11 89 1007.4
20191013202004 40 224 2.0 7.0 0.01 0.11 0.11 89 1007.4
20191013201503 40 237 2.0 8.0 0.01 0.11 0.11 89 1007.4
20191013201004 40 234 2.0 8.0 0.01 0.11 0.11 89 1007.4
20191013200504 40 242 2.0 8.0 0.00 0.10 0.10 89 1007.4
20191013200003 40 248 2.0 9.0 0.00 0.10 0.10 89 1007.4
20191013195504 40 229 3.0 9.0 0.00 0.10 0.10 89 1007.2
20191013195003 40 240 3.0 9.0 0.01 0.10 0.10 89 1007.2
20191013194503 40 283 4.0 10.0 0.01 0.10 0.10 89 1007.2
20191013194004 40 293 4.0 10.0 0.01 0.10 0.10 89 1006.9
20191013193503 40 287 3.0 9.0 0.01 0.10 0.10 89 1006.9
20191013193004 40 277 3.0 9.0 0.01 0.10 0.10 90 1006.9
20191013192504 40 294 4.0 12.0 0.01 0.10 0.10 90 1007.0
20191013192003 40 303 5.0 12.0 0.01 0.10 0.10 90 1007.0
20191013191504 40 302 5.0 14.0 0.02 0.10 0.10 91 1007.0
20191013191003 40 303 5.0 14.0 0.02 0.10 0.10 91 1006.9
20191013190504 40 303 4.0 8.0 0.02 0.10 0.10 91 1006.9
20191013190004 40 303 4.0 9.0 0.02 0.10 0.10 91 1006.9
20191013185503 39 305 5.0 14.0 0.02 0.10 0.10 90 1007.0
20191013185004 39 306 7.0 18.0 0.01 0.09 0.09 90 1007.0
20191013184503 40 310 8.0 18.0 0.02 0.09 0.09 88 1007.0
20191013184004 40 308 7.0 17.0 0.02 0.09 0.09 88 1007.0
20191013183503 40 301 7.0 17.0 0.02 0.09 0.09 88 1007.0
20191013183004 41 300 6.0 14.0 0.02 0.09 0.09 89 1007.0
20191013182503 41 305 5.0 11.0 0.02 0.09 0.09 90 1006.7
20191013182004 41 307 5.0 11.0 0.02 0.09 0.09 89 1006.7
20191013181503 42 305 5.0 10.0 0.01 0.08 0.08 89 1006.7
20191013181003 42 302 4.0 10.0 0.01 0.08 0.08 89 1006.5
20191013180504 42 301 4.0 10.0 0.01 0.08 0.08 89 1006.5
20191013180003 42 303 5.0 13.0 0.01 0.08 0.08 88 1006.5
20191013175504 42 303 6.0 13.0 0.01 0.08 0.08 88 1006.4
20191013175004 42 302 4.0 12.0 0.02 0.08 0.08 88 1006.4
20191013174504 43 305 4.0 12.0 0.01 0.07 0.07 88 1006.4
20191013174004 43 308 4.0 8.0 0.02 0.07 0.07 89 1006.5
20191013173504 42 307 4.0 8.0 0.02 0.07 0.07 89 1006.5
20191013173004 42 304 3.0 8.0 0.03 0.07 0.07 90 1006.5
20191013172504 42 299 2.0 8.0 0.03 0.07 0.07 90 1006.6
20191013172003 42 294 1.0 5.0 0.03 0.07 0.07 90 1006.6
20191013171504 42 280 2.0 5.0 0.03 0.07 0.07 91 1006.6
20191013171004 42 231 1.0 5.0 0.03 0.07 0.07 91 1006.6
20191013170504 42 268 1.0 5.0 0.03 0.07 0.07 91 1006.6
20191013170004 42 299 1.0 5.0 0.03 0.07 0.07 91 1006.6
20191013165503 42 300 1.0 4.0 0.03 0.07 0.07 91 1006.7
20191013165005 42 295 1.0 6.0 0.03 0.06 0.06 91 1006.7
20191013164503 42 300 2.0 6.0 0.03 0.06 0.06 91 1006.7
20191013164004 42 308 2.0 6.0 0.02 0.05 0.05 90 1006.6
20191013163504 42 305 2.0 6.0 0.03 0.05 0.05 91 1006.6
20191013163005 42 306 1.0 3.0 0.02 0.04 0.04 90 1006.6
20191013162503 42 307 0.0 3.0 0.03 0.04 0.04 90 1006.8
20191013162003 42 310 0.0 3.0 0.04 0.04 0.04 90 1006.8
20191013161504 42 304 0.0 3.0 0.04 0.04 0.04 91 1006.8
20191013161004 42 304 1.0 5.0 0.04 0.04 0.04 90 1006.9
20191013160503 42 306 1.0 5.0 0.04 0.04 0.04 90 1006.9
20191013160004 42 299 1.0 4.0 0.04 0.04 0.04 90 1006.9
20191013155503 42 307 1.0 9.0 0.04 0.04 0.04 90 1006.7
20191013155004 41 302 2.0 9.0 0.03 0.03 0.03 90 1006.7
20191013154503 41 303 3.0 9.0 0.03 0.03 0.03 89 1006.7
20191013154004 41 308 4.0 11.0 0.03 0.03 0.03 88 1006.7
20191013153503 42 304 4.0 11.0 0.02 0.02 0.02 87 1006.7
20191013153004 42 302 5.0 13.0 0.02 0.02 0.02 87 1006.7
20191013152503 42 301 6.0 13.0 0.01 0.01 0.01 85 1006.7
20191013152004 43 299 5.0 13.0 0.00 0.00 0.00 82 1006.7
20191013151503 45 282 3.0 11.0 0.00 0.00 0.00 81 1006.7
20191013151003 45 208 4.0 8.0 0.00 0.00 0.00 80 1006.5
20191013150504 45 192 6.0 14.0 0.00 0.00 0.00 78 1006.5
20191013150003 45 191 7.0 14.0 0.00 0.00 0.00 78 1006.5
20191013145504 46 196 6.0 14.0 0.00 0.00 0.00 78 1006.5
20191013145004 46 196 6.0 13.0 0.00 0.00 0.00 78 1006.5
20191013144504 46 194 6.0 13.0 0.00 0.00 0.00 76 1006.5
20191013144004 46 194 5.0 9.0 0.00 0.00 0.00 76 1006.5
20191013143503 46 194 5.0 8.0 0.00 0.00 0.00 76 1006.5
20191013143004 46 194 5.0 11.0 0.00 0.00 0.00 75 1006.5
20191013142503 46 197 5.0 11.0 0.00 0.00 0.00 75 1006.5
20191013142004 46 195 5.0 10.0 0.00 0.00 0.00 76 1006.5
20191013141503 46 193 5.0 11.0 0.00 0.00 0.00 76 1006.5
20191013141003 46 193 4.0 11.0 0.00 0.00 0.00 76 1006.5
20191013140504 46 192 3.0 8.0 0.00 0.00 0.00 77 1006.5
20191013140003 45 193 4.0 8.0 0.00 0.00 0.00 77 1006.5
20191013135504 45 197 3.0 7.0 0.00 0.00 0.00 78 1006.5
20191013135004 45 200 3.0 7.0 0.00 0.00 0.00 78 1006.5
20191013134504 45 195 3.0 6.0 0.00 0.00 0.00 79 1006.5
20191013134004 44 197 4.0 7.0 0.00 0.00 0.00 79 1006.8
20191013133503 44 198 3.0 7.0 0.00 0.00 0.00 80 1006.8
20191013133004 44 198 2.0 6.0 0.00 0.00 0.00 81 1006.8
20191013132503 44 201 1.0 6.0 0.00 0.00 0.00 83 1007.0
20191013132004 44 195 1.0 5.0 0.00 0.00 0.00 84 1007.0
20191013131504 44 193 1.0 5.0 0.00 0.00 0.00 85 1007.0
20191013131004 44 196 1.0 4.0 0.00 0.00 0.00 85 1006.9
20191013130504 44 196 1.0 3.0 0.00 0.00 0.00 86 1006.9
20191013130004 44 197 1.0 4.0 0.00 0.00 0.00 86 1006.9
20191013125504 44 193 1.0 4.0 0.00 0.00 0.00 86 1006.7
20191013125004 44 183 0.0 2.0 0.00 0.00 0.00 86 1006.7
20191013124503 44 227 0.0 4.0 0.00 0.00 0.00 86 1006.7
20191013124004 44 204 1.0 4.0 0.00 0.00 0.00 86 1006.6
20191013123503 44 201 1.0 4.0 0.00 0.00 0.00 86 1006.6
20191013123004 44 191 1.0 3.0 0.00 0.00 0.00 86 1006.6
20191013122504 44 191 1.0 4.0 0.00 0.00 0.00 85 1007.1
20191013122004 44 184 2.0 5.0 0.00 0.00 0.00 85 1007.1
20191013121503 44 184 1.0 5.0 0.00 0.00 0.00 85 1007.1
20191013121004 44 201 1.0 3.0 0.00 0.00 0.00 84 1007.2
20191013120504 44 185 1.0 4.0 0.00 0.00 0.00 84 1007.2
20191013120004 44 245 2.0 5.0 0.00 0.00 0.00 84 1007.2
20191013115504 44 263 1.0 5.0 0.00 0.00 0.00 84 1006.9
20191013115003 44 190 1.0 4.0 0.00 0.00 0.00 84 1006.9
20191013114503 44 182 2.0 5.0 0.00 0.00 0.00 84 1006.9
20191013114004 44 183 1.0 5.0 0.00 0.00 0.00 84 1007.1
20191013113506 44 197 1.0 5.0 0.00 0.00 0.00 83 1007.1
20191013113005 44 189 1.0 4.0 0.00 0.00 0.00 83 1007.1
20191013112503 44 186 1.0 4.0 0.00 0.00 0.00 82 1007.2
20191013112003 44 178 0.0 4.0 0.00 0.00 0.00 82 1007.2
20191013111504 44 185 1.0 3.0 0.00 0.00 0.00 81 1007.2
20191013111003 44 185 1.0 3.0 0.00 0.00 0.00 81 1007.1
20191013110504 44 183 1.0 3.0 0.00 0.00 0.00 80 1007.1
20191013110003 44 211 0.0 2.0 0.00 0.00 0.00 80 1007.1
20191013105504 44 303 1.0 4.0 0.00 0.00 0.00 79 1007.0